Location: Pinawa
(50.1500°N, 95.8830°W)
Time: 13:12:56
(UTC-05:00)

Amateur Radio Satellites - All Passes

Search period start: 30 July 2015 12:42
Search period end: 31 July 2015 12:42
Location: Pinawa, 50.1500°N, 95.8830°W

Satellite Date Start Highest point End Downlink Frequencies (MHz)
Time Altitude Azimuth
BUGSAT 1 30 Jul 12:44:08 12:47:43 29° 265° (W) 12:51:16 437.445
HO-68 30 Jul 12:45:54 12:50:46 20° 314° (NW) 12:55:27 435.675
HUMSAT D 30 Jul 12:49:18 12:53:19 38° 292° (WNW) 12:57:19 437.325/437.525
DX 1 30 Jul 12:50:24 12:54:40 54° 290° (WNW) 12:58:54 434.975-435.025
Cosmos 2491 30 Jul 12:56:09 13:04:33 55° 91° (E) 13:13:00 435.465 / 435.565
VELOX 1 30 Jul 12:56:53 13:01:18 76° 286° (WNW) 13:05:42 145.980
ESTCUBE 1 30 Jul 13:00:19 13:04:52 86° 107° (ESE) 13:09:22 437.505/2401.250
Gurwin Techsat 1B 30 Jul 13:00:29 13:03:22 15° 53° (NE) 13:06:26 435.225
DELFI C3 30 Jul 13:02:40 13:04:40 13° 302° (WNW) 13:06:32 145.870
DUCHIFAT 1 30 Jul 13:04:49 13:07:10 14° 273° (W) 13:09:22 145.980
QB50P1 30 Jul 13:06:46 13:08:55 13° 273° (W) 13:10:53 145.935-145.965
50 SAT 30 Jul 13:07:58 13:11:47 43° 290° (WNW) 13:15:34 437.505
NANOSAT C BR1 30 Jul 13:08:59 13:11:00 13° 274° (W) 13:12:50 145.865
SPROUT 30 Jul 13:21:49 13:25:54 41° 97° (E) 13:29:59 437.525
ZACube-1 30 Jul 13:23:27 13:25:15 12° 304° (NW) 13:26:52 437.345
ITAMSAT 1 30 Jul 13:32:51 13:36:51 23° 59° (ENE) 13:40:58 435.822/435.867
JAS-2 30 Jul 13:37:42 13:41:41 18° 47° (NE) 13:46:08 435.910
TISAT 1 30 Jul 13:41:40 13:45:39 40° 98° (E) 13:49:40 437.305
SWISSCUBE 30 Jul 13:44:48 13:45:25 10° 83° (E) 13:46:18 437.505
SO-50 30 Jul 13:52:57 13:56:30 19° 342° (NNW) 14:00:03 436.795
Oscar 19 30 Jul 13:54:03 13:59:11 87° 259° (W) 14:04:22 437.125/150
AISAT 30 Jul 13:54:17 13:57:50 24° 298° (WNW) 14:01:18 437.250
AIST 1 30 Jul 13:54:58 13:59:07 41° 287° (WNW) 14:03:15
Cosmos 2504 30 Jul 13:55:59 14:03:52 47° 69° (ENE) 14:12:06 435.465 / 435.565
UKube-1 30 Jul 14:02:50 14:05:22 15° 302° (WNW) 14:07:46 .
ITUPSAT 1 30 Jul 14:03:10 14:05:42 14° 86° (E) 14:08:25 437.325
O/OREOS (USA 219) 30 Jul 14:03:48 14:04:35 10° 263° (W) 14:05:07 437.305
PCSat 30 Jul 14:09:11 14:12:19 15° 346° (NNW) 14:15:23 145.827
CUBEBUG 1 30 Jul 14:14:45 14:18:16 24° 297° (WNW) 14:21:42 437.445
YUBILEINY 30 Jul 14:15:25 14:22:43 29° 279° (W) 14:29:48 435.215
AO-7 30 Jul 14:22:17 14:29:05 30° 48° (NE) 14:36:03 29.400- 29.500
VELOX 1 30 Jul 14:35:22 14:37:09 12° 305° (NW) 14:38:47 145.980
Gurwin Techsat 1B 30 Jul 14:37:17 14:42:34 75° 73° (ENE) 14:47:55 435.225
ESTCUBE 1 30 Jul 14:38:32 14:41:09 15° 303° (WNW) 14:43:38 437.505/2401.250
Cosmos 2491 30 Jul 14:53:30 15:01:46 43° 294° (WNW) 15:09:57 435.465 / 435.565
HORYU 2 30 Jul 14:55:36 14:58:31 18° 59° (ENE) 15:01:34 437.375
SPROUT 30 Jul 14:58:15 15:01:49 25° 296° (WNW) 15:05:19 437.525
BEESAT 30 Jul 14:59:15 15:03:52 45° 99° (E) 15:08:27 436.000
GONETS M04 30 Jul 15:04:38 15:06:31 11° 35° (NE) 15:08:51
ITAMSAT 1 30 Jul 15:10:46 15:15:58 65° 258° (WSW) 15:21:12 435.822/435.867
TISAT 1 30 Jul 15:17:48 15:21:16 25° 296° (WNW) 15:24:40 437.305
JAS-2 30 Jul 15:19:20 15:25:26 66° 69° (ENE) 15:32:26 435.910
SWISSCUBE 30 Jul 15:19:27 15:24:15 74° 103° (ESE) 15:29:01 437.505
CUSAT 1 30 Jul 15:22:57 15:26:20 35° 74° (ENE) 15:30:39 437.405
SO-50 30 Jul 15:35:49 15:38:49 16° 6° (N) 15:41:51 436.795
Oscar 19 30 Jul 15:36:42 15:39:25 14° 275° (W) 15:41:54 437.125/150
ITUPSAT 1 30 Jul 15:39:28 15:44:19 83° 286° (WNW) 15:49:06 437.325
Cosmos 2504 30 Jul 15:48:19 15:56:12 50° 271° (W) 16:04:20 435.465 / 435.565
PCSat 30 Jul 15:55:03 15:58:00 15° 12° (NNE) 16:01:00 145.827
STARS 30 Jul 16:00:09 16:03:34 22° 92° (E) 16:07:04 437.465
AO-7 30 Jul 16:12:41 16:21:06 88° 253° (WSW) 16:29:33 29.400- 29.500
Gurwin Techsat 1B 30 Jul 16:19:28 16:23:13 19° 273° (W) 16:26:49 435.225
KKS-1 30 Jul 16:21:43 16:26:06 54° 100° (E) 16:30:30 437.445
HORYU 2 30 Jul 16:30:15 16:34:41 70° 256° (WSW) 16:39:12 437.375
CUTE-I 30 Jul 16:30:18 16:30:20 10° 47° (NE) 16:30:36 437.470
DANDE 30 Jul 16:31:56 16:35:13 72° 259° (W) 16:39:32 436.750
BEESAT 30 Jul 16:37:26 16:41:32 28° 297° (WNW) 16:45:32 436.000
SWISSCUBE 30 Jul 16:58:16 17:01:37 19° 302° (WNW) 17:04:50 437.505
Cosmos 2491 30 Jul 16:58:39 17:01:53 12° 323° (NW) 17:04:40 435.465 / 435.565
GONETS M04 30 Jul 16:58:46 17:06:46 39° 64° (ENE) 17:14:52
MOZHAYETS 4 30 Jul 16:59:30 17:02:56 21° 89° (E) 17:06:29
CUSAT 1 30 Jul 17:05:42 17:08:49 23° 264° (W) 17:12:31 437.405
JAS-2 30 Jul 17:06:00 17:11:15 27° 273° (W) 17:16:55 435.910
Cubesat XI-IV 30 Jul 17:09:29 17:13:11 20° 56° (NE) 17:17:01 437.490
SO-50 30 Jul 17:16:36 17:20:55 28° 30° (NNE) 17:25:14 436.795
ITUPSAT 1 30 Jul 17:18:51 17:21:32 15° 305° (NW) 17:24:03 437.325
STARS 30 Jul 17:36:01 17:40:17 48° 291° (WNW) 17:44:32 437.465
PCSat 30 Jul 17:38:21 17:43:10 31° 37° (NE) 17:48:01 145.827
Cosmos 2504 30 Jul 17:44:37 17:46:40 11° 291° (WNW) 17:48:07 435.465 / 435.565
Cosmos 2499 30 Jul 17:58:45 18:05:39 27° 57° (ENE) 18:12:57 435.465 / 435.565
KKS-1 30 Jul 17:59:00 18:02:26 22° 299° (WNW) 18:05:48 437.445
HO-68 30 Jul 18:01:57 18:03:47 11° 35° (NE) 18:05:53 435.675
CUTE-I 30 Jul 18:04:11 18:09:16 47° 67° (ENE) 18:14:25 437.470
AO-7 30 Jul 18:08:40 18:15:11 23° 273° (W) 18:21:24 29.400- 29.500
MOZHAYETS 4 30 Jul 18:35:59 18:40:33 55° 289° (WNW) 18:45:03
BRITE-PL 30 Jul 18:46:17 18:48:34 15° 60° (ENE) 18:50:56 437.365/2234.400
Cubesat XI-IV 30 Jul 18:47:19 18:52:43 83° 254° (WSW) 18:58:09 437.490
CUBESAT XI-V 30 Jul 18:48:25 18:52:06 24° 91° (E) 18:55:51 437.345
GONETS M04 30 Jul 18:55:37 19:04:08 59° 268° (W) 19:12:35
SO-50 30 Jul 18:56:59 19:01:59 78° 232° (SW) 19:06:52 436.795
GOMX 1 30 Jul 19:06:21 19:08:21 14° 59° (ENE) 19:10:31 467.674
PCSat 30 Jul 19:21:37 19:27:01 66° 239° (WSW) 19:32:23 145.827
HO-68 30 Jul 19:43:17 19:49:39 38° 58° (ENE) 19:56:08 435.675
CUTE-I 30 Jul 19:44:50 19:49:34 31° 266° (W) 19:54:16 437.470
Cosmos 2499 30 Jul 19:51:25 20:00:06 90° 75° (ENE) 20:09:02 435.465 / 435.565
COMPASS 1 30 Jul 20:03:21 20:06:03 17° 61° (ENE) 20:08:53 437.405
STRAND 1 30 Jul 20:13:44 20:18:39 46° 98° (E) 20:23:34 437.568
CUTE 1.7 + AOD 2 30 Jul 20:14:27 20:18:11 30° 66° (ENE) 20:21:59 437.475
SEEDS 30 Jul 20:14:37 20:18:07 26° 64° (ENE) 20:21:41 437.485
Oscar 11 30 Jul 20:15:22 20:16:19 11° 55° (NE) 20:17:27 145.826/435.025
CANX-2 30 Jul 20:22:17 20:26:15 39° 68° (ENE) 20:30:17 2200.000
BRITE-PL 30 Jul 20:22:18 20:26:41 76° 257° (WSW) 20:30:54 437.365/2234.400
CUBESAT XI-V 30 Jul 20:25:22 20:29:49 47° 290° (WNW) 20:34:13 437.345
Cubesat XI-IV 30 Jul 20:30:54 20:33:46 14° 276° (W) 20:36:23 437.490
PRISM 30 Jul 20:38:11 20:42:19 65° 102° (ESE) 20:46:23 437.425
DOVE 4 30 Jul 20:38:28 20:42:33 59° 72° (ENE) 20:46:40 437.250
SO-50 30 Jul 20:39:12 20:41:49 14° 250° (WSW) 20:44:12 436.795
GOMX 1 30 Jul 20:41:47 20:46:01 80° 259° (WSW) 20:50:12 467.674
AAUSAT CUBESAT 2 30 Jul 20:44:58 20:48:45 34° 67° (ENE) 20:52:36 437.432
DELFI C3 30 Jul 20:45:02 20:46:50 13° 58° (ENE) 20:48:47 145.870
GONETS M04 30 Jul 20:55:15 20:59:13 13° 290° (WNW) 21:02:38
CINEMA 3 30 Jul 21:00:04 21:04:02 46° 70° (ENE) 21:08:07 145.822/145.860
PCSat 30 Jul 21:07:41 21:09:32 11° 257° (WSW) 21:11:05 145.827
ZACube-1 30 Jul 21:10:37 21:13:44 21° 62° (ENE) 21:17:00 437.345
RS-15 30 Jul 21:14:10 21:22:13 26° 103° (ESE) 21:30:53 29.354- 29.394
VERMONT LUNAR 30 Jul 21:29:41 21:31:30 14° 174° (S) 21:33:19 437.305
UWE-3 30 Jul 21:29:52 21:33:44 37° 68° (ENE) 21:37:45 435.000/436.395/437.385
HO-68 30 Jul 21:30:09 21:37:11 58° 259° (WSW) 21:44:15 435.675
FUNcube-1 30 Jul 21:32:21 21:36:03 31° 66° (ENE) 21:39:53 145.935
COMPASS 1 30 Jul 21:37:05 21:41:17 65° 259° (W) 21:45:32 437.405
CUBEBUG 2 30 Jul 21:41:41 21:45:48 60° 72° (ENE) 21:50:04 437.445
Cosmos 2499 30 Jul 21:45:42 21:52:21 25° 281° (W) 21:58:50 435.465 / 435.565
AISAT 30 Jul 21:46:10 21:47:45 12° 55° (NE) 21:49:30 437.250
Oscar 11 30 Jul 21:47:26 21:51:44 68° 73° (ENE) 21:56:06 145.826/435.025
SEEDS 30 Jul 21:49:44 21:53:45 40° 263° (W) 21:57:48 437.485
CUTE 1.7 + AOD 2 30 Jul 21:50:09 21:54:03 33° 265° (W) 21:57:58 437.475
UKube-1 30 Jul 21:50:18 21:53:07 18° 60° (ENE) 21:56:04 .
STRAND 1 30 Jul 21:53:16 21:57:43 30° 298° (WNW) 22:02:05 437.568
CANX-2 30 Jul 21:58:41 22:02:18 26° 267° (W) 22:05:54 2200.000
CUBEBUG 1 30 Jul 22:06:13 22:07:01 11° 55° (NE) 22:08:00 437.445
AUBIESAT-1 30 Jul 22:09:43 22:12:34 16° 92° (E) 22:15:35 437.475
HUMSAT D 30 Jul 22:09:56 22:13:40 33° 67° (ENE) 22:17:29 437.325/437.525
PRISM 30 Jul 22:14:39 22:17:19 17° 301° (WNW) 22:19:53 437.425
DX 1 30 Jul 22:14:45 22:18:32 30° 65° (ENE) 22:22:22 434.975-435.025
DELFI C3 30 Jul 22:17:15 22:21:20 86° 256° (WSW) 22:25:27 145.870
DOVE 4 30 Jul 22:18:14 22:20:49 15° 272° (W) 22:23:16 437.250
AAUSAT CUBESAT 2 30 Jul 22:20:43 22:24:24 28° 266° (W) 22:28:04 437.432
AIST 1 30 Jul 22:21:54 22:22:41 11° 57° (ENE) 22:23:42
50 SAT 30 Jul 22:22:19 22:25:20 22° 64° (ENE) 22:28:27 437.505
VELOX 1 30 Jul 22:23:29 22:26:57 23° 62° (ENE) 22:30:29 145.980
ESTCUBE 1 30 Jul 22:29:04 22:32:20 20° 61° (ENE) 22:35:42 437.505/2401.250
CINEMA 3 30 Jul 22:38:24 22:41:34 20° 270° (W) 22:44:40 145.822/145.860
ZACube-1 30 Jul 22:45:41 22:49:47 51° 261° (W) 22:54:00 437.345
TIGRISAT 30 Jul 22:46:33 22:48:55 14° 86° (E) 22:51:30 435.000
ANTELSAT 30 Jul 22:47:29 22:50:04 15° 86° (E) 22:52:51 437.575/2403.000
ISS 30 Jul 22:53:58 22:56:47 28° 147° (SSE) 22:59:39 145.825
PHONESAT 2.4 30 Jul 22:54:37 22:56:42 15° 170° (S) 22:58:47 2401.200-2431.200
Cosmos 2491 30 Jul 23:00:26 23:08:15 36° 62° (ENE) 23:16:09 435.465 / 435.565
VERMONT LUNAR 30 Jul 23:05:59 23:07:30 13° 191° (S) 23:08:59 437.305
UWE-3 30 Jul 23:06:51 23:10:24 26° 268° (W) 23:14:00 435.000/436.395/437.385
FUNcube-1 30 Jul 23:08:35 23:12:22 32° 265° (W) 23:16:13 145.935
M-CUBED/EXP-1 PRIME 30 Jul 23:12:06 23:16:55 64° 107° (ESE) 23:21:39 437.505
AISAT 30 Jul 23:19:14 23:23:37 75° 73° (ENE) 23:28:02 437.250
CUBEBUG 2 30 Jul 23:20:14 23:22:59 16° 272° (W) 23:25:39 437.445
RS-15 30 Jul 23:22:04 23:33:01 83° 127° (SE) 23:44:29 29.354- 29.394
HO-68 30 Jul 23:24:18 23:26:44 11° 281° (WNW) 23:28:42 435.675
UKube-1 30 Jul 23:24:32 23:28:50 66° 257° (WSW) 23:33:09 .
Oscar 11 30 Jul 23:25:48 23:28:27 15° 273° (W) 23:30:58 145.826/435.025
YUBILEINY 30 Jul 23:32:06 23:37:11 18° 74° (ENE) 23:42:43 435.215
UNISAT 6 30 Jul 23:37:46 23:42:11 41° 97° (E) 23:46:39 437.425
CUBEBUG 1 30 Jul 23:38:18 23:42:37 67° 73° (ENE) 23:46:57 437.445
BEESAT 3 30 Jul 23:42:16 23:42:29 10° 110° (ESE) 23:42:54 437.485
AUBIESAT-1 30 Jul 23:43:05 23:47:52 80° 290° (WNW) 23:52:35 437.475
HUMSAT D 30 Jul 23:45:48 23:49:26 29° 266° (W) 23:53:06 437.325/437.525
DX 1 30 Jul 23:50:44 23:54:45 34° 264° (W) 23:58:43 434.975-435.025
POLYITAN 1 30 Jul 23:51:28 23:54:52 23° 92° (E) 23:58:20 437.675
50 SAT 30 Jul 23:56:02 23:59:43 40° 262° (W) 00:03:27 437.505
AIST 1 30 Jul 23:56:56 00:01:14 79° 80° (E) 00:05:29
VELOX 1 30 Jul 23:58:59 00:03:15 48° 261° (W) 00:07:33 145.980
ESTCUBE 1 31 Jul 00:04:21 00:08:50 60° 259° (W) 00:13:22 437.505/2401.250
POPSAT HIP 1 31 Jul 00:08:53 00:12:43 32° 96° (E) 00:16:36 437.405
QB50P2 31 Jul 00:16:03 00:20:04 39° 97° (E) 00:24:06 145.880/145.840
SPROUT 31 Jul 00:20:13 00:24:23 57° 72° (ENE) 00:28:37 437.525
BUGSAT 1 31 Jul 00:21:13 00:24:41 27° 94° (E) 00:28:13 437.445
TIGRISAT 31 Jul 00:21:39 00:26:20 84° 283° (WNW) 00:31:03 435.000
ANTELSAT 31 Jul 00:22:47 00:27:28 80° 287° (WNW) 00:32:12 437.575/2403.000
ISS 31 Jul 00:29:43 00:33:00 87° 352° (N) 00:36:17 145.825
PHONESAT 2.4 31 Jul 00:31:38 00:33:55 16° 186° (S) 00:36:11 2401.200-2431.200
BEESAT 2 31 Jul 00:34:29 00:37:52 25° 118° (ESE) 00:41:20 435.950
BEESAT 31 Jul 00:35:04 00:37:41 15° 56° (NE) 00:40:29 436.000
TISAT 1 31 Jul 00:38:00 00:42:05 56° 71° (ENE) 00:46:12 437.305
DUCHIFAT 1 31 Jul 00:42:14 00:46:29 67° 102° (ESE) 00:50:42 145.980
QB50P1 31 Jul 00:44:21 00:48:36 74° 103° (ESE) 00:52:52 145.935-145.965
NANOSAT C BR1 31 Jul 00:46:11 00:50:27 76° 102° (ESE) 00:54:42 145.865
M-CUBED/EXP-1 PRIME 31 Jul 00:47:28 00:51:18 24° 305° (NW) 00:55:02 437.505
SWISSCUBE 31 Jul 00:54:09 00:57:48 23° 60° (ENE) 01:01:33 437.505
Cosmos 2491 31 Jul 00:57:12 01:05:50 65° 266° (W) 01:14:22 435.465 / 435.565
AISAT 31 Jul 00:58:21 01:00:48 14° 273° (W) 01:03:05 437.250
ITUPSAT 1 31 Jul 01:13:51 01:17:57 29° 63° (ENE) 01:22:08 437.325
UNISAT 6 31 Jul 01:14:48 01:18:51 29° 295° (WNW) 01:22:52 437.425
BEESAT 3 31 Jul 01:15:40 01:19:44 73° 127° (SE) 01:23:51 437.485
CUBEBUG 1 31 Jul 01:16:46 01:19:29 16° 272° (W) 01:22:04 437.445
AUBIESAT-1 31 Jul 01:18:59 01:21:54 16° 310° (NW) 01:24:41 437.475
YUBILEINY 31 Jul 01:23:58 01:32:36 74° 95° (E) 01:41:21 435.215
POLYITAN 1 31 Jul 01:26:54 01:30:57 43° 291° (WNW) 01:35:01 437.675
RS-15 31 Jul 01:35:58 01:46:38 48° 336° (NNW) 01:57:46 29.354- 29.394
AIST 1 31 Jul 01:36:32 01:38:18 12° 277° (W) 01:39:53
POPSAT HIP 1 31 Jul 01:44:49 01:48:34 30° 294° (WNW) 01:52:17 437.405
KKS-1 31 Jul 01:50:31 01:52:37 14° 56° (ENE) 01:54:53 437.445
QB50P2 31 Jul 01:52:14 01:55:49 26° 296° (WNW) 01:59:20 145.880/145.840
BUGSAT 1 31 Jul 01:56:32 02:00:12 33° 293° (WNW) 02:03:52 437.445
AIST 2 31 Jul 01:57:02 02:01:01 40° 121° (ESE) 02:05:01 435.215
SPROUT 31 Jul 01:57:55 02:00:53 18° 271° (W) 02:03:44 437.525
TIGRISAT 31 Jul 01:59:55 02:02:26 14° 303° (WNW) 02:04:49 435.000
ANTELSAT 31 Jul 02:01:11 02:03:34 14° 304° (NW) 02:05:48 437.575/2403.000
Oscar 19 31 Jul 02:01:22 02:05:28 24° 91° (E) 02:09:39 437.125/150
ISS 31 Jul 02:06:18 02:09:34 67° 5° (N) 02:12:49 145.825
BEESAT 31 Jul 02:10:05 02:14:53 86° 73° (ENE) 02:19:43 436.000
BEESAT 2 31 Jul 02:11:42 02:15:42 49° 316° (NW) 02:19:45 435.950
TISAT 1 31 Jul 02:15:22 02:18:15 17° 271° (W) 02:20:59 437.305
DUCHIFAT 1 31 Jul 02:19:05 02:21:51 17° 300° (WNW) 02:24:30 145.980
QB50P1 31 Jul 02:21:23 02:23:59 16° 301° (WNW) 02:26:29 145.935-145.965
NANOSAT C BR1 31 Jul 02:23:14 02:25:47 15° 301° (WNW) 02:28:13 145.865
SWISSCUBE 31 Jul 02:30:33 02:35:19 59° 259° (W) 02:40:05 437.505
Cosmos 2504 31 Jul 02:33:46 02:39:28 27° 81° (E) 02:45:41 435.465 / 435.565
O/OREOS (USA 219) 31 Jul 02:38:05 02:42:24 50° 111° (ESE) 02:46:48 437.305
Gurwin Techsat 1B 31 Jul 02:49:27 02:53:23 21° 89° (E) 02:57:27 435.225
ITUPSAT 1 31 Jul 02:51:06 02:55:42 43° 262° (W) 03:00:19 437.325
BEESAT 3 31 Jul 02:54:44 02:58:06 23° 328° (NNW) 03:01:26 437.485
Cosmos 2491 31 Jul 02:56:21 03:01:05 15° 288° (WNW) 03:05:20 435.465 / 435.565
STARS 31 Jul 03:01:16 03:05:12 34° 66° (ENE) 03:09:12 437.465
ITAMSAT 1 31 Jul 03:19:07 03:23:42 32° 94° (E) 03:28:20 435.822/435.867
YUBILEINY 31 Jul 03:22:42 03:30:23 32° 300° (WNW) 03:37:58 435.215
KKS-1 31 Jul 03:24:12 03:28:37 86° 75° (ENE) 03:33:05 437.445
AIST 2 31 Jul 03:35:39 03:39:37 36° 321° (NW) 03:43:36 435.215
Oscar 19 31 Jul 03:40:08 03:45:13 57° 291° (WNW) 03:50:17 437.125/150
ISS 31 Jul 03:42:47 03:45:59 54° 205° (SSW) 03:49:11 145.825
BEESAT 31 Jul 03:50:52 03:53:28 14° 274° (W) 03:55:53 436.000
RS-15 31 Jul 03:51:44 04:02:15 40° 9° (N) 04:13:16 29.354- 29.394
BEESAT 2 31 Jul 03:52:10 03:54:41 15° 339° (NNW) 03:57:11 435.950
MOZHAYETS 4 31 Jul 04:05:37 04:09:45 33° 66° (ENE) 04:13:58
JAS-2 31 Jul 04:07:46 04:15:10 46° 95° (E) 04:22:40 435.910
AO-7 31 Jul 04:09:54 04:16:07 23° 87° (E) 04:22:35 29.400- 29.500
HORYU 2 31 Jul 04:17:46 04:20:37 17° 88° (E) 04:23:36 437.375
O/OREOS (USA 219) 31 Jul 04:18:18 04:22:06 26° 312° (NW) 04:25:54 437.305
Cosmos 2504 31 Jul 04:23:49 04:30:59 71° 284° (WNW) 04:38:45 435.465 / 435.565
Gurwin Techsat 1B 31 Jul 04:28:37 04:33:55 66° 290° (WNW) 04:39:11 435.225
BEESAT 3 31 Jul 04:36:11 04:37:25 11° 351° (N) 04:38:38 437.485
CUSAT 1 31 Jul 04:37:33 04:39:22 16° 95° (E) 04:41:09 437.405
STARS 31 Jul 04:37:48 04:41:42 30° 265° (W) 04:45:34 437.465
ITAMSAT 1 31 Jul 04:58:27 05:03:22 43° 294° (WNW) 05:08:14 435.822/435.867
KKS-1 31 Jul 05:04:00 05:05:58 12° 274° (W) 05:07:45 437.445
AIST 2 31 Jul 05:17:06 05:19:21 14° 344° (NNW) 05:21:34 435.215
ISS 31 Jul 05:20:20 05:21:54 13° 222° (SW) 05:23:22 145.825
Oscar 19 31 Jul 05:21:49 05:23:37 12° 310° (NW) 05:25:13 437.125/150
BEESAT 2 31 Jul 05:33:28 05:34:23 11° 2° (N) 05:35:18 435.950
MOZHAYETS 4 31 Jul 05:42:42 05:46:58 35° 265° (W) 05:51:14
DANDE 31 Jul 05:49:49 05:52:57 78° 283° (WNW) 05:55:38 436.750
JAS-2 31 Jul 05:52:52 06:00:17 51° 295° (WNW) 06:07:46 435.910
HORYU 2 31 Jul 05:53:15 05:57:46 66° 288° (WNW) 06:02:14 437.375
CUBESAT XI-V 31 Jul 05:55:59 06:00:19 39° 68° (ENE) 06:04:41 437.345
STRAND 1 31 Jul 05:57:07 06:00:39 19° 57° (ENE) 06:04:18 437.568
PRISM 31 Jul 05:59:45 06:01:38 13° 57° (ENE) 06:03:40 437.425
AO-7 31 Jul 06:01:46 06:10:12 89° 110° (ESE) 06:18:32 29.400- 29.500
RS-15 31 Jul 06:05:37 06:17:10 67° 40° (NE) 06:29:15 29.354- 29.394
GONETS M04 31 Jul 06:06:25 06:14:01 37° 84° (E) 06:21:46
Gurwin Techsat 1B 31 Jul 06:10:23 06:13:02 14° 308° (NW) 06:15:29 435.225
BEESAT 3 31 Jul 06:15:12 06:17:03 13° 15° (NNE) 06:18:57 437.485
CUTE-I 31 Jul 06:18:24 06:20:23 12° 83° (E) 06:22:40 437.470
CUSAT 1 31 Jul 06:19:57 06:21:50 17° 291° (WNW) 06:23:38 437.405
Cosmos 2504 31 Jul 06:20:08 06:25:03 18° 310° (NW) 06:29:54 435.465 / 435.565
Cosmos 2499 31 Jul 06:45:56 06:49:13 14° 71° (ENE) 06:53:04 435.465 / 435.565
AIST 2 31 Jul 06:58:04 06:59:38 12° 8° (N) 07:01:15 435.215
Cubesat XI-IV 31 Jul 07:00:18 07:04:48 28° 92° (E) 07:09:23 437.490
BEESAT 2 31 Jul 07:11:05 07:13:59 18° 26° (NNE) 07:16:54 435.950
HORYU 2 31 Jul 07:32:11 07:33:37 11° 306° (NW) 07:34:51 437.375
PRISM 31 Jul 07:32:17 07:36:29 89° 76° (ENE) 07:40:42 437.425
CUBESAT XI-V 31 Jul 07:33:44 07:37:52 29° 266° (W) 07:41:57 437.345
STRAND 1 31 Jul 07:34:10 07:39:20 79° 257° (WSW) 07:44:31 437.568
JAS-2 31 Jul 07:39:29 07:43:50 16° 315° (NW) 07:47:57 435.910
BEESAT 3 31 Jul 07:52:25 07:56:10 33° 38° (NE) 07:59:52 437.485
AO-7 31 Jul 07:55:16 08:02:11 30° 312° (NW) 08:08:55 29.400- 29.500
CUTE-I 31 Jul 07:56:09 08:01:32 76° 104° (ESE) 08:06:51 437.470
GONETS M04 31 Jul 08:01:54 08:10:31 62° 287° (WNW) 08:19:09
RS-15 31 Jul 08:18:24 08:29:33 52° 245° (WSW) 08:40:59 29.354- 29.394
BRITE-PL 31 Jul 08:22:04 08:25:23 22° 92° (E) 08:28:57 437.365/2234.400
M-CUBED/EXP-1 PRIME 31 Jul 08:30:45 08:34:07 24° 55° (NE) 08:37:45 437.505
Cosmos 2499 31 Jul 08:33:24 08:40:44 64° 94° (E) 08:48:43 435.465 / 435.565
DOVE 4 31 Jul 08:33:48 08:35:32 12° 85° (E) 08:37:31 437.250
AIST 2 31 Jul 08:36:09 08:39:38 24° 31° (NNE) 08:43:07 435.215
GOMX 1 31 Jul 08:38:39 08:41:56 20° 91° (E) 08:45:28 467.674
Cubesat XI-IV 31 Jul 08:40:02 08:45:13 51° 292° (WNW) 08:50:20 437.490
BEESAT 2 31 Jul 08:48:37 08:52:44 72° 48° (NE) 08:56:47 435.950
HO-68 31 Jul 08:53:10 08:58:35 23° 88° (E) 09:04:12 435.675
AUBIESAT-1 31 Jul 09:00:35 09:04:25 37° 60° (ENE) 09:08:35 437.475
PRISM 31 Jul 09:11:21 09:12:37 11° 274° (W) 09:13:41 437.425
COMPASS 1 31 Jul 09:16:56 09:19:25 15° 87° (E) 09:22:02 437.405
STRAND 1 31 Jul 09:17:12 09:19:30 12° 276° (W) 09:21:32 437.568
SO-50 31 Jul 09:18:50 09:20:23 12° 108° (ESE) 09:22:10 436.795
SEEDS 31 Jul 09:29:27 09:32:59 25° 92° (E) 09:36:33 437.485
BEESAT 3 31 Jul 09:30:20 09:34:10 40° 238° (WSW) 09:37:55 437.485
CUTE 1.7 + AOD 2 31 Jul 09:30:23 09:34:13 31° 94° (E) 09:38:04 437.475
CUBEBUG 2 31 Jul 09:30:48 09:31:08 10° 83° (E) 09:31:44 437.445
YUBILEINY 31 Jul 09:33:04 09:36:55 14° 40° (NE) 09:41:11 435.215
CUTE-I 31 Jul 09:37:09 09:41:06 21° 303° (WNW) 09:44:56 437.470
CANX-2 31 Jul 09:38:27 09:42:33 40° 97° (E) 09:46:37 2200.000
TIGRISAT 31 Jul 09:49:40 09:52:54 21° 61° (ENE) 09:56:18 435.000
AO-7 31 Jul 09:49:55 09:52:18 11° 338° (NNW) 09:54:29 29.400- 29.500
ANTELSAT 31 Jul 09:50:51 09:54:13 22° 62° (ENE) 09:57:44 437.575/2403.000
AAUSAT CUBESAT 2 31 Jul 09:58:24 10:02:13 33° 95° (E) 10:06:03 437.432
BRITE-PL 31 Jul 10:00:05 10:04:11 46° 289° (WNW) 10:08:31 437.365/2234.400
GONETS M04 31 Jul 10:04:09 10:09:42 17° 314° (NW) 10:14:56
M-CUBED/EXP-1 PRIME 31 Jul 10:04:36 10:08:36 50° 255° (WSW) 10:12:57 437.505
DUCHIFAT 1 31 Jul 10:05:56 10:07:47 13° 57° (ENE) 10:09:48 145.980
PCSat 31 Jul 10:07:41 10:12:47 44° 117° (ESE) 10:17:57 145.827
QB50P1 31 Jul 10:08:04 10:10:13 14° 58° (ENE) 10:12:30 145.935-145.965
DOVE 4 31 Jul 10:09:28 10:13:58 88° 104° (ESE) 10:18:46 437.250
NANOSAT C BR1 31 Jul 10:09:40 10:11:51 14° 58° (ENE) 10:14:11 145.865
AIST 2 31 Jul 10:14:25 10:18:38 73° 233° (SW) 10:22:46 435.215
GOMX 1 31 Jul 10:16:06 10:20:23 53° 289° (WNW) 10:24:56 467.674
Cubesat XI-IV 31 Jul 10:22:51 10:24:14 11° 312° (NW) 10:25:23 437.490
CINEMA 3 31 Jul 10:26:22 10:30:57 64° 101° (E) 10:35:44 145.822/145.860
BEESAT 2 31 Jul 10:27:42 10:30:19 16° 246° (WSW) 10:32:49 435.950
Cosmos 2499 31 Jul 10:27:50 10:34:36 33° 299° (WNW) 10:41:44 435.465 / 435.565
ZACube-1 31 Jul 10:29:40 10:33:15 23° 91° (E) 10:36:58 437.345
RS-15 31 Jul 10:34:58 10:39:27 12° 267° (W) 10:42:53 29.354- 29.394
AUBIESAT-1 31 Jul 10:35:33 10:39:13 29° 261° (W) 10:43:05 437.475
HO-68 31 Jul 10:40:01 10:47:15 84° 290° (WNW) 10:54:28 435.675
UNISAT 6 31 Jul 10:41:11 10:45:29 61° 72° (ENE) 10:49:55 437.425
POLYITAN 1 31 Jul 10:48:47 10:52:30 31° 66° (ENE) 10:56:16 437.675
UWE-3 31 Jul 10:50:45 10:55:09 45° 98° (E) 10:59:37 435.000/436.395/437.385
COMPASS 1 31 Jul 10:51:21 10:55:34 64° 287° (WNW) 10:59:44 437.405
FUNcube-1 31 Jul 10:51:29 10:55:38 35° 96° (E) 10:59:51 145.935
SO-50 31 Jul 10:55:19 11:00:05 69° 126° (SE) 11:05:02 436.795
CUBEBUG 2 31 Jul 11:04:05 11:08:41 74° 102° (ESE) 11:13:24 437.445
O/OREOS (USA 219) 31 Jul 11:04:12 11:08:22 33° 52° (NE) 11:12:33 437.305
SEEDS 31 Jul 11:04:54 11:08:55 39° 291° (WNW) 11:12:53 437.485
POPSAT HIP 1 31 Jul 11:05:56 11:09:55 44° 69° (ENE) 11:13:57 437.405
Oscar 11 31 Jul 11:06:06 11:10:29 74° 102° (ESE) 11:14:51 145.826/435.025
CUTE 1.7 + AOD 2 31 Jul 11:06:15 11:10:09 33° 293° (WNW) 11:13:58 437.475
AISAT 31 Jul 11:08:08 11:08:34 10° 84° (E) 11:09:16 437.250
UKube-1 31 Jul 11:08:31 11:10:57 15° 88° (E) 11:13:31 .
QB50P2 31 Jul 11:13:13 11:17:19 54° 71° (ENE) 11:21:27 145.880/145.840
CANX-2 31 Jul 11:14:41 11:18:19 26° 295° (WNW) 11:21:50 2200.000
BUGSAT 1 31 Jul 11:15:35 11:19:16 35° 68° (ENE) 11:22:59 437.445
HUMSAT D 31 Jul 11:24:27 11:28:22 33° 95° (E) 11:32:19 437.325/437.525
TIGRISAT 31 Jul 11:25:03 11:29:19 54° 260° (W) 11:33:44 435.000
ANTELSAT 31 Jul 11:26:26 11:30:42 51° 261° (W) 11:35:06 437.575/2403.000
DELFI C3 31 Jul 11:26:34 11:30:40 85° 100° (E) 11:34:44 145.870
50 SAT 31 Jul 11:27:20 11:29:58 17° 90° (E) 11:32:42 437.505
YUBILEINY 31 Jul 11:28:16 11:36:43 48° 68° (ENE) 11:45:13 435.215
AAUSAT CUBESAT 2 31 Jul 11:34:04 11:37:47 30° 294° (WNW) 11:41:25 437.432
DX 1 31 Jul 11:34:11 11:37:56 28° 95° (E) 11:41:42 434.975-435.025
DUCHIFAT 1 31 Jul 11:38:49 11:43:00 90° 206° (SSW) 11:47:14 145.980
QB50P1 31 Jul 11:41:19 11:45:32 82° 255° (WSW) 11:49:46 145.935-145.965
NANOSAT C BR1 31 Jul 11:42:57 11:47:09 81° 256° (WSW) 11:51:23 145.865
VELOX 1 31 Jul 11:45:02 11:48:31 23° 92° (E) 11:52:04 145.980
Oscar 19 31 Jul 11:48:07 11:49:09 11° 49° (NE) 11:50:25 437.125/150
DOVE 4 31 Jul 11:48:41 11:51:15 15° 301° (WNW) 11:53:43 437.250
PCSat 31 Jul 11:51:10 11:56:18 41° 318° (NW) 12:01:27 145.827
ESTCUBE 1 31 Jul 11:52:58 11:56:19 21° 90° (E) 11:59:45 437.505/2401.250
AIST 2 31 Jul 11:55:54 11:56:29 10° 250° (WSW) 11:56:51 435.215
CINEMA 3 31 Jul 12:04:25 12:07:48 20° 298° (WNW) 12:11:11 145.822/145.860
ZACube-1 31 Jul 12:05:30 12:09:52 48° 290° (WNW) 12:14:14 437.345
Cosmos 2491 31 Jul 12:08:29 12:15:53 33° 83° (E) 12:23:26 435.465 / 435.565
Cosmos 2504 31 Jul 12:12:45 12:17:07 15° 47° (NE) 12:21:58 435.465 / 435.565
UNISAT 6 31 Jul 12:19:44 12:22:45 17° 272° (W) 12:25:41 437.425
POLYITAN 1 31 Jul 12:24:38 12:28:24 31° 265° (W) 12:32:09 437.675
UWE-3 31 Jul 12:27:40 12:31:29 26° 296° (WNW) 12:35:17 435.000/436.395/437.385
FUNcube-1 31 Jul 12:27:53 12:31:54 32° 294° (WNW) 12:35:55 145.935
HO-68 31 Jul 12:28:41 12:34:09 23° 310° (NW) 12:39:26 435.675
AIST 1 31 Jul 12:31:11 12:35:08 36° 92° (E) 12:39:08
Gurwin Techsat 1B 31 Jul 12:39:56 12:40:59 11° 49° (NE) 12:42:16 435.225
